Prévision chaque heure sur Domdidier


  Conditions Température Point de rosée PrécipitationProbabilité d'orage Vent Pression UV Index Couverture nuageuse Visibilité
 07:22     19:25   La longueur du jour: 12:03 Aujourd'hui
19:00 17 °
Sensation de: 13.0°
15.2° 16.5 mm <20%
11
Max: 25 km/h
1007.0 hPa   65% 21 km
20:00 16 °
Sensation de: 12.8°
15.1° 0.5 mm <20%
9
Max: 22 km/h
1006.8 hPa   79% 9.5 km
21:00 16 °
Sensation de: 12.8°
14.8°   <20%
8
Max: 19 km/h
1006.4 hPa   76% 3.5 km
22:00 16 °
Sensation de: 10.9°
14.6°   <20%
10
Max: 21 km/h
1006.0 hPa   91% 6.6 km
23:00 15 °
Sensation de: 8.7°
14.6° 1.3 mm <20%
12
Max: 24 km/h
1006.0 hPa   98% 3.4 km
 07:23     19:23   La longueur du jour: 12:00 Demain
00:00 15 °
Sensation de: 6.5°
14.5°   <20%
15
Max: 27 km/h
1005.6 hPa   100% 6.7 km
01:00 15 °
Sensation de: 5.4°
14.4°   <20%
17
Max: 31 km/h
1005.2 hPa   100% 12 km
02:00 15 °
Sensation de: 2.6°
14.5° 2.3 mm <20%
19
Max: 33 km/h
1005.0 hPa   100% 3.6 km
03:00 15 °
Sensation de: 1.0°
14.5° 0.5 mm <20%
22
Max: 37 km/h
1005.0 hPa   100% 9.3 km
04:00 15 °
Sensation de: 3.3°
14.4°   <20%
19
Max: 37 km/h
1004.6 hPa   100% 12 km
05:00 14 °
Sensation de: 3.6°
14.3° 2.1 mm <20%
17
Max: 35 km/h
1004.2 hPa   100% 3.0 km
06:00 14 °
Sensation de: 5.3°
13.8° 0.5 mm <20%
14
Max: 34 km/h
1004.2 hPa   100% 5.0 km
07:00 14 °
Sensation de: 4.3°
13.2°   <20%
15
Max: 33 km/h
1004.6 hPa   100% 9.2 km
08:00 13 °
Sensation de: 2.8°
13.1° 3.5 mm <20%
15
Max: 33 km/h
1005.4 hPa   100% 1.9 km
09:00 13 °
Sensation de: 2.6°
12.7° 1.0 mm <20%
15
Max: 34 km/h
1005.8 hPa   100% 4.8 km
10:00 13 °
Sensation de: 1.7°
12.1°   <20%
16
Max: 35 km/h
1006.0 hPa   100% 8.9 km
11:00 12 °
Sensation de: -0.1°
11.8° 0.6 mm 20-40%
17
Max: 35 km/h
1005.6 hPa   100% 6.4 km
12:00 12 °
Sensation de: -1.1°
11.3°   20-40%
18
Max: 36 km/h
1005.0 hPa 100% 9.6 km
13:00 12 °
Sensation de: 0.6°
10.9°   20-40%
16
Max: 35 km/h
1004.4 hPa 100% 15 km
14:00 12 °
Sensation de: 0.7°
10.9° 1.0 mm 20-40%
14
Max: 33 km/h
1003.6 hPa 100% 4.6 km
15:00 12 °
Sensation de: 1.5°
10.6° 0.3 mm 20-40%
13
Max: 31 km/h
1003.2 hPa 100% 7.4 km
16:00 12 °
Sensation de: 2.7°
10.4°   20-40%
12
Max: 30 km/h
1003.2 hPa 100% 15 km
17:00 11 °
Sensation de: 1.6°
10.5° 2.0 mm 20-40%
11
Max: 29 km/h
1003.6 hPa   100% 2.9 km
18:00 11 °
Sensation de: 2.6°
10.4° 0.5 mm 20-40%
10
Max: 27 km/h
1004.4 hPa   100% 5.9 km
19:00 11 °
Sensation de: 3.0°
10.1°   20-40%
10
Max: 28 km/h
1005.0 hPa   100% 15 km
20:00 10 °
Sensation de: 1.3°
10.0° 1.8 mm 20-40%
10
Max: 28 km/h
1005.6 hPa   100% 3.0 km
21:00 10 °
Sensation de: 1.0°
9.8° 0.5 mm 20-40%
11
Max: 28 km/h
1006.2 hPa   100% 7.8 km
22:00 11 °
Sensation de: -0.0°
9.4°   20-40%
13
Max: 30 km/h
1006.6 hPa   100% 18 km
23:00 10 °
Sensation de: -2.2°
9.3° 1.5 mm 20-40%
14
Max: 31 km/h
1007.2 hPa   100% 6.4 km
 07:24     19:21   La longueur du jour: 11:57 Samedi 26 Sep
00:00 10 °
Sensation de: -3.5°
9.0° 0.3 mm <20%
16
Max: 34 km/h
1007.6 hPa   100% 14 km
01:00 10 °
Sensation de: -1.9°
8.6°   <20%
14
Max: 33 km/h
1008.2 hPa   100% 21 km
02:00 9 °
Sensation de: -1.7°
8.8° 3.0 mm <20%
12
Max: 30 km/h
1008.6 hPa   100% 3.6 km
03:00 9 °
Sensation de: 0.2°
8.7° 0.8 mm <20%
10
Max: 28 km/h
1009.0 hPa   100% 9.0 km
04:00 10 °
Sensation de: 0.7°
8.5°   <20%
10
Max: 28 km/h
1009.4 hPa   100% 16 km
05:00 9 °
Sensation de: -0.9°
8.9° 8.6 mm 0%
11
Max: 27 km/h
1009.8 hPa   100% 1.3 km
06:00 9 °
Sensation de: -0.4°
8.7° 2.1 mm 0%
11
Max: 29 km/h
1010.4 hPa   100% 9.1 km
07:00 10 °
Sensation de: -0.0°
8.5°   0%
11
Max: 29 km/h
1011.2 hPa   100% 17 km
08:00 9 °
Sensation de: -0.9°
8.9° 6.3 mm 0%
11
Max: 28 km/h
1012.2 hPa   100% 2.0 km
09:00 9 °
Sensation de: -1.1°
8.8° 1.5 mm 0%
12
Max: 29 km/h
1013.2 hPa   100% 11 km
10:00 10 °
Sensation de: 0.1°
8.6°   <20%
11
Max: 29 km/h
1013.8 hPa   100% 18 km
11:00 9 °
Sensation de: -1.0°
8.7° 1.8 mm 0%
11
Max: 28 km/h
1014.0 hPa 100% 3.2 km
12:00 9 °
Sensation de: -0.5°
8.7° 0.5 mm 0%
11
Max: 28 km/h
1014.0 hPa 100% 8.1 km
13:00 10 °
Sensation de: 0.2°
8.5°   0%
11
Max: 28 km/h
1014.4 hPa 95% 18 km
14:00 9 °
Sensation de: 0.3°
8.7° 1.3 mm <20%
10
Max: 28 km/h
1014.8 hPa 89% 6.9 km
15:00 10 °
Sensation de: 0.7°
8.6° 0.2 mm <20%
10
Max: 28 km/h
1015.0 hPa 89% 13 km
16:00 10 °
Sensation de: 2.1°
8.4°   <20%
9
Max: 27 km/h
1015.0 hPa 96% 25 km
17:00 9 °
Sensation de: 1.8°
8.8° 3.1 mm <20%
7
Max: 24 km/h
1015.4 hPa   99% 2.2 km
18:00 9 °
Sensation de: 3.1°
8.8° 1.0 mm <20%
6
Max: 22 km/h
1015.8 hPa   100% 8.7 km